Location: Crescent
(42.8242°N, 73.7329°W)
Time: 01:06:07
(UTC+00:00)

Vanguard 2 Rocket - Pass Details

Date: 20 February 2026
Orbit: 553 x 3286 km, 32.9° (Epoch: 9 March)

Event Time Altitude Azimuth Distance (km) Brightness Sun altitude
Rises 13:13:39 0° 187° (S) 6,807 11.7 14.3°
Reaches altitude 10° 13:20:34 10° 171° (S) 6,079 11.8 15.4°
Maximum altitude 13:31:32 18° 136° (SE) 5,546 13.1 17.1°
Drops below altitude 10° 13:42:14 10° 102° (ESE) 5,981 12.5 18.7°
Sets 13:48:44 0° 86° (E) 6,671 12.1 19.6°
